Location: ??????????
(42.1626°N, 44.1160°E)
Time: 12:00:34
(UTC+00:00)

Cosmos 2263 Rocket - Pass Details

Date: 03 March 2021
Orbit: 825 x 847 km, 71.0° (Epoch: 20 April)

Event Time Altitude Azimuth Distance (km) Brightness Sun altitude
Rises 16:08:13 0° 325° (NW) 3,369 5.9 -14.2°
Reaches altitude 10° 16:10:55 10° 315° (NW) 2,431 5.3 -14.7°
Maximum altitude 16:15:38 29° 257° (WSW) 1,471 4.2 -15.5°
Drops below altitude 10° 16:20:21 10° 198° (SSW) 2,422 4.7 -16.4°
Sets 16:23:03 0° 188° (S) 3,353 5.3 -16.9°
